Hourly Data Report for July 05, 2003

SHERBROOKE A
QUEBEC

45°26'00.000" N
71°41'00.000" W
241.40 m
7028124
71610
YSC

Download Data

Hourly Data (July 2003)
Hourly Data Report for July 5, 2003
TIME
LST
Temp Definition
°C
Dew Point Definition
°C
Rel Hum Definition
%
Precip. Amount Definition
mm

Wind Dir Definition
10's deg

Wind Spd Definition
km/h
Visibility Definition
km
Stn Press Definition
kPa
Hmdx Definition


Wind Chill Definition


Weather Definition


00:00 17.7 17.0 96     0 1.3 97.82      
01:00 17.9 17.2 96     0 1.3 97.83      
02:00 16.8 16.2 96     0 1.8 97.82      
03:00 16.6 15.7 94     0 4.0 97.83      
04:00 16.4 15.8 96   12 4 1.1 97.83      
05:00 18.3 17.8 97   12 4 1.9 97.86      
06:00 19.8 18.9 95   12 4 2.9 97.84      
07:00 21.1 19.4 90     0 9.7 97.85 28   Haze
08:00 22.4 19.3 83   27 6 16.1 97.86 29   Cloudy
09:00 22.6 19.2 81   23 9 16.1 97.82 30   Rain
10:00 22.6 19.8 84   22 17 19.3 97.85 30   Mostly Cloudy
11:00 22.3 19.7 85   23 9 19.3 97.85 30   Rain
12:00 23.0 20.1 84   19 7 19.3 97.85 31   Rain Showers
13:00 25.7 20.5 73   24 13 24.1 97.80 34   Mostly Cloudy
14:00 26.8 20.3 68   26 17 24.1 97.75 35   Mostly Cloudy
15:00 28.0 19.5 60   23 19 24.1 97.67 35   Mainly Clear
16:00 28.4 20.0 60   24 11 24.1 97.64 36   Mainly Clear
17:00 21.1 18.3 84   34 9 4.0 97.69 27   Heavy Rain
18:00 21.7 19.4 87   13 6 15.0 97.71 29    
19:00 20.3 19.0 92   15 9 15.0 97.76 27    
20:00 18.4 17.5 94     0 11.3 97.77      
21:00 17.0 16.6 97     0 1.0 97.79      
22:00 17.6 17.0 96     0 6.4 97.76      
23:00 17.5 16.8 96   10 4 9.7 97.85      

Notes on Data Quality.

Legend

  • E = Estimated
  • M = Missing
  • NA = Not Available*
  • [empty] = Indicates an unobserved value
Date modified: